Flag for Brazil Weather past 2 weeks in Foz do Iguaçu, Paraná, Brazil

Now
75 °F

Clear.


Feels Like: 75 °F
Forecast: N/A
Wind: 2 mph from East

Location: Foz Do Iguacu Aeroporto

Current Time: May 22, 2015 at 6:52:29 PM

Latest Report: May 22, 2015 at 6:00 PM


Visibility: 10 mi

Pressure: 29.98 "Hg

Humidity: 83%

Dew point: 70 °F

Location of Foz do IguaçuLocation

Historic Weather in Foz do Iguaçu — Graph

°F

Foz do Iguaçu temperature yesterday

Maximum temperature yesterday: 81 °F (at 2:00 PM)
Minimum temperature yesterday: 63 °F (at 8:00 AM)
Average temperature yesterday: 70 °F

Past Weeks' High & Low Weather Summary

 TemperatureHumidityPressure
High82 °F (May 22, 12:00 PM)100% (May 9, 12:00 AM)30.21 "Hg (May 9, 12:00 AM)
Low50 °F (May 12, 3:00 AM)53% (May 8, 12:00 PM)29.89 "Hg (May 10, 6:00 AM)
Average66 °F87%30.08 "Hg
* Reported May 7 5:00 PM — May 22 5:00 PM, Foz do Iguaçu, Weather by CustomWeather, © 2015

Note: Actual official high and low records may vary slightly from our data, if they occured in-between our weather recording intervals... More about our weather records

Advertising

Foz do Iguaçu weather history for previous 24 hours

 ConditionsComfort  
Time TempWeatherWind HumidityBarometerVisibility
5:00 PM
Fri, May 22
77 °FClear.5 mph79%29.98 "Hg10 mi
4:00 PM79 °FPartly sunny.7 mph70%30.01 "HgN/A
3:00 PM79 °FPartly sunny.10 mph70%30.01 "HgN/A
2:00 PM82 °FScattered clouds.12 mph58%30.04 "HgN/A
1:00 PM82 °FScattered clouds.12 mph58%30.04 "HgN/A
12:00 PM82 °FScattered clouds.16 mph58%30.07 "HgN/A
11:00 AM77 °FSunny.8 mph69%30.09 "Hg10 mi
10:00 AM73 °FSunny.9 mph78%30.09 "Hg10 mi
9:00 AM70 °FSunny.9 mph83%30.09 "Hg10 mi
8:00 AM66 °FSunny.9 mph88%30.09 "Hg10 mi
7:00 AM64 °FSunny.7 mph94%30.09 "Hg10 mi
6:00 AM64 °FClear.6 mph94%30.07 "Hg10 mi
5:00 AM64 °FClear.7 mph94%30.07 "Hg10 mi
4:00 AM64 °FClear.7 mph100%30.07 "Hg10 mi
3:00 AM66 °FClear.9 mph94%30.07 "Hg10 mi
2:00 AM66 °FClear.7 mph94%30.07 "Hg10 mi
1:00 AM68 °FClear.8 mph88%30.07 "Hg10 mi
12:00 AM68 °FClear.7 mph88%30.07 "Hg10 mi
11:00 PM
Thu, May 21
68 °FClear.7 mph88%30.07 "Hg10 mi
10:00 PM68 °FClear.6 mph88%30.07 "Hg10 mi
9:00 PM68 °FClear.3 mph94%30.07 "Hg10 mi
8:00 PM70 °FClear.3 mph88%30.07 "Hg10 mi
7:00 PM70 °FClear.1 mph88%30.04 "Hg10 mi
6:00 PM73 °FClear.No wind83%30.04 "Hg10 mi
Weather by CustomWeather, © 2015

See weather overviewHow to use our weather pages